| time (UTC) | temp C | wind direction | speed KPH | gust KPH | rain 1hr cm | rain 24hr cm | rain mn cm | humidity % | barometer mb |
| 20260510203455 | 18 | 261 | 1.6 | 1.6 | 0.00 | 0.05 | 0.05 | 43 | 1016.9 |
| 20260510202954 | 18 | 73 | 3.2 | 3.2 | 0.00 | 0.05 | 0.05 | 41 | 1016.9 |
| 20260510202450 | 18 | 49 | 1.6 | 1.6 | 0.00 | 0.05 | 0.05 | 40 | 1017.0 |
| 20260510201947 | 18 | 15 | 3.2 | 4.8 | 0.00 | 0.05 | 0.05 | 38 | 1016.9 |
| 20260510201445 | 18 | 101 | 0.0 | 1.6 | 0.00 | 0.05 | 0.05 | 38 | 1017.1 |
| 20260510200941 | 18 | 147 | 1.6 | 1.6 | 0.00 | 0.05 | 0.05 | 38 | 1017.0 |
| 20260510200436 | 18 | 70 | 1.6 | 1.6 | 0.00 | 0.05 | 0.05 | 39 | 1017.1 |
| 20260510195929 | 18 | 132 | 1.6 | 1.6 | 0.00 | 0.05 | 0.05 | 40 | 1017.1 |
| 20260510195427 | 18 | 93 | 0.0 | 0.0 | 0.00 | 0.05 | 0.05 | 38 | 1017.0 |
| 20260510194922 | 18 | 97 | 0.0 | 0.0 | 0.00 | 0.05 | 0.05 | 39 | 1017.1 |
| 20260510194418 | 18 | 119 | 0.0 | 1.6 | 0.00 | 0.05 | 0.05 | 41 | 1017.0 |
| 20260510193914 | 18 | 87 | 1.6 | 1.6 | 0.00 | 0.05 | 0.05 | 39 | 1017.2 |
| 20260510193409 | 18 | 112 | 1.6 | 1.6 | 0.00 | 0.05 | 0.05 | 47 | 1017.1 |
| 20260510192905 | 18 | 40 | 1.6 | 3.2 | 0.00 | 0.05 | 0.05 | 39 | 1017.2 |
| 20260510192400 | 18 | 93 | 3.2 | 4.8 | 0.00 | 0.05 | 0.05 | 42 | 1017.1 |
| 20260510191856 | 18 | 118 | 1.6 | 1.6 | 0.00 | 0.05 | 0.05 | 39 | 1017.2 |
| 20260510191352 | 18 | 93 | 3.2 | 3.2 | 0.00 | 0.05 | 0.05 | 37 | 1017.0 |
| 20260510190850 | 18 | 348 | 1.6 | 3.2 | 0.00 | 0.05 | 0.05 | 38 | 1017.0 |
| 20260510190347 | 18 | 20 | 1.6 | 1.6 | 0.00 | 0.05 | 0.05 | 36 | 1017.2 |
| 20260510185844 | 18 | 126 | 1.6 | 1.6 | 0.00 | 0.05 | 0.05 | 44 | 1017.0 |
| 20260510185342 | 18 | 94 | 1.6 | 1.6 | 0.00 | 0.05 | 0.05 | 38 | 1017.1 |
| 20260510184839 | 18 | 154 | 3.2 | 3.2 | 0.00 | 0.05 | 0.05 | 40 | 1017.0 |
| 20260510184336 | 18 | 65 | 0.0 | 0.0 | 0.00 | 0.05 | 0.05 | 44 | 1017.2 |
| 20260510183835 | 17 | 93 | 0.0 | 0.0 | 0.00 | 0.05 | 0.05 | 43 | 1017.0 |
| 20260510183331 | 17 | 193 | 4.8 | 4.8 | 0.00 | 0.05 | 0.05 | 45 | 1016.9 |
| 20260510182827 | 17 | 222 | 3.2 | 3.2 | 0.00 | 0.05 | 0.05 | 39 | 1016.9 |
| 20260510182324 | 18 | 96 | 3.2 | 3.2 | 0.00 | 0.05 | 0.05 | 45 | 1017.0 |
| 20260510181819 | 17 | 116 | 1.6 | 1.6 | 0.00 | 0.05 | 0.05 | 47 | 1017.1 |
| 20260510181317 | 17 | 139 | 4.8 | 4.8 | 0.00 | 0.05 | 0.05 | 49 | 1017.1 |
| 20260510180813 | 17 | 149 | 1.6 | 3.2 | 0.00 | 0.05 | 0.05 | 49 | 1016.9 |
| 20260510180311 | 17 | 85 | 1.6 | 1.6 | 0.00 | 0.05 | 0.05 | 47 | 1016.6 |
| 20260510175807 | 17 | 133 | 1.6 | 1.6 | 0.00 | 0.05 | 0.05 | 47 | 1016.6 |
| 20260510175306 | 17 | 106 | 1.6 | 1.6 | 0.00 | 0.05 | 0.05 | 50 | 1016.4 |
| 20260510174800 | 17 | 167 | 1.6 | 1.6 | 0.00 | 0.05 | 0.05 | 48 | 1016.7 |
| 20260510174257 | 17 | 137 | 0.0 | 1.6 | 0.00 | 0.05 | 0.05 | 48 | 1016.5 |
| 20260510173753 | 17 | 117 | 4.8 | 6.4 | 0.00 | 0.05 | 0.05 | 45 | 1016.8 |
| 20260510173249 | 17 | 99 | 1.6 | 3.2 | 0.00 | 0.05 | 0.05 | 49 | 1016.6 |
| 20260510172745 | 17 | 56 | 1.6 | 3.2 | 0.00 | 0.05 | 0.05 | 55 | 1016.7 |
| 20260510172241 | 17 | 150 | 3.2 | 3.2 | 0.00 | 0.05 | 0.05 | 54 | 1016.6 |
| 20260510171738 | 17 | 138 | 1.6 | 3.2 | 0.00 | 0.05 | 0.05 | 52 | 1016.7 |
| 20260510171235 | 17 | 125 | 0.0 | 1.6 | 0.00 | 0.05 | 0.05 | 46 | 1016.9 |
| 20260510170732 | 16 | 88 | 0.0 | 1.6 | 0.00 | 0.05 | 0.05 | 51 | 1017.0 |
| 20260510170228 | 16 | 69 | 1.6 | 1.6 | 0.00 | 0.05 | 0.05 | 63 | 1017.0 |
| 20260510165724 | 16 | 75 | 0.0 | 1.6 | 0.00 | 0.05 | 0.05 | 54 | 1017.0 |
| 20260510165220 | 16 | 133 | 3.2 | 3.2 | 0.00 | 0.05 | 0.05 | 54 | 1017.0 |
| 20260510164718 | 16 | 86 | 3.2 | 3.2 | 0.00 | 0.05 | 0.05 | 53 | 1017.0 |
| 20260510164215 | 16 | 235 | 3.2 | 3.2 | 0.00 | 0.05 | 0.05 | 52 | 1017.0 |
| 20260510163710 | 17 | 45 | 1.6 | 3.2 | 0.00 | 0.05 | 0.05 | 55 | 1016.8 |
| 20260510163206 | 16 | 249 | 1.6 | 3.2 | 0.00 | 0.05 | 0.05 | 57 | 1016.8 |
| 20260510162706 | 16 | 123 | 0.0 | 1.6 | 0.00 | 0.05 | 0.05 | 54 | 1016.8 |
| 20260510162203 | 16 | 153 | 1.6 | 3.2 | 0.00 | 0.05 | 0.05 | 55 | 1016.7 |
| 20260510161659 | 17 | 315 | 1.6 | 1.6 | 0.00 | 0.05 | 0.05 | 57 | 1016.8 |
| 20260510161155 | 16 | 111 | 0.0 | 0.0 | 0.00 | 0.05 | 0.05 | 61 | 1016.7 |
| 20260510160652 | 16 | 164 | 1.6 | 3.2 | 0.00 | 0.05 | 0.05 | 58 | 1016.7 |
| 20260510160148 | 16 | 106 | 0.0 | 0.0 | 0.00 | 0.05 | 0.05 | 59 | 1016.8 |
| 20260510155643 | 16 | 142 | 3.2 | 4.8 | 0.00 | 0.05 | 0.05 | 57 | 1016.6 |
| 20260510155139 | 16 | 135 | 1.6 | 3.2 | 0.00 | 0.05 | 0.05 | 60 | 1016.3 |
| 20260510154635 | 16 | 143 | 1.6 | 3.2 | 0.00 | 0.05 | 0.05 | 60 | 1016.5 |
| 20260510154131 | 16 | 100 | 1.6 | 1.6 | 0.00 | 0.05 | 0.05 | 62 | 1016.4 |
| 20260510153626 | 15 | 111 | 0.0 | 0.0 | 0.00 | 0.05 | 0.05 | 58 | 1016.3 |
| 20260510153123 | 15 | 75 | 1.6 | 1.6 | 0.00 | 0.05 | 0.05 | 59 | 1016.3 |
| 20260510152620 | 16 | 148 | 0.0 | 3.2 | 0.00 | 0.05 | 0.05 | 57 | 1016.4 |
| 20260510152116 | 16 | 112 | 1.6 | 1.6 | 0.00 | 0.05 | 0.05 | 56 | 1016.4 |
| 20260510151613 | 16 | 104 | 1.6 | 1.6 | 0.00 | 0.05 | 0.05 | 60 | 1016.1 |
| 20260510151112 | 15 | 99 | 0.0 | 0.0 | 0.00 | 0.05 | 0.05 | 64 | 1016.0 |
| 20260510150611 | 15 | 116 | 1.6 | 1.6 | 0.00 | 0.05 | 0.05 | 59 | 1016.0 |
| 20260510150108 | 15 | 121 | 3.2 | 4.8 | 0.00 | 0.05 | 0.05 | 63 | 1016.1 |
| 20260510145604 | 15 | 88 | 1.6 | 1.6 | 0.00 | 0.05 | 0.05 | 62 | 1016.0 |
| 20260510145101 | 15 | 79 | 0.0 | 0.0 | 0.00 | 0.05 | 0.05 | 61 | 1016.0 |
| 20260510144557 | 15 | 108 | 0.0 | 1.6 | 0.00 | 0.05 | 0.05 | 63 | 1015.7 |
| 20260510144053 | 15 | 120 | 1.6 | 3.2 | 0.00 | 0.05 | 0.05 | 56 | 1015.7 |
| 20260510143548 | 15 | 308 | 1.6 | 1.6 | 0.00 | 0.05 | 0.05 | 59 | 1015.5 |
| 20260510143045 | 15 | 113 | 0.0 | 1.6 | 0.00 | 0.05 | 0.05 | 65 | 1015.4 |
| 20260510142542 | 15 | 87 | 0.0 | 0.0 | 0.00 | 0.05 | 0.05 | 65 | 1015.4 |
| 20260510142039 | 14 | 94 | 0.0 | 1.6 | 0.00 | 0.05 | 0.05 | 65 | 1015.2 |
| 20260510141535 | 15 | 15 | 1.6 | 3.2 | 0.00 | 0.05 | 0.05 | 65 | 1015.2 |
| 20260510141033 | 14 | 112 | 0.0 | 1.6 | 0.00 | 0.05 | 0.05 | 67 | 1015.2 |
| 20260510140529 | 14 | 359 | 1.6 | 1.6 | 0.00 | 0.05 | 0.05 | 70 | 1015.1 |
| 20260510140029 | 13 | 109 | 0.0 | 0.0 | 0.00 | 0.05 | 0.05 | 70 | 1015.0 |
| 20260510135524 | 13 | 101 | 1.6 | 1.6 | 0.00 | 0.05 | 0.05 | 69 | 1015.0 |
| 20260510135021 | 12 | 110 | 0.0 | 1.6 | 0.00 | 0.05 | 0.05 | 74 | 1015.1 |
| 20260510134518 | 12 | 108 | 0.0 | 1.6 | 0.00 | 0.05 | 0.05 | 77 | 1015.0 |
| 20260510134015 | 11 | 95 | 0.0 | 0.0 | 0.00 | 0.05 | 0.05 | 79 | 1014.9 |
| 20260510133511 | 11 | 106 | 0.0 | 0.0 | 0.00 | 0.05 | 0.05 | 82 | 1015.1 |
| 20260510133007 | 10 | 104 | 0.0 | 0.0 | 0.00 | 0.05 | 0.05 | 83 | 1014.9 |
| 20260510132504 | 10 | 107 | 0.0 | 0.0 | 0.00 | 0.05 | 0.05 | 84 | 1014.8 |
| 20260510132001 | 10 | 96 | 0.0 | 0.0 | 0.00 | 0.05 | 0.05 | 85 | 1014.9 |
| 20260510131459 | 10 | 124 | 0.0 | 0.0 | 0.00 | 0.05 | 0.05 | 83 | 1014.6 |
| 20260510130955 | 10 | 101 | 0.0 | 0.0 | 0.00 | 0.05 | 0.05 | 84 | 1014.8 |
| 20260510130452 | 10 | 101 | 0.0 | 0.0 | 0.00 | 0.05 | 0.05 | 84 | 1014.8 |
| 20260510125949 | 10 | 100 | 0.0 | 0.0 | 0.00 | 0.05 | 0.05 | 85 | 1014.8 |
| 20260510125445 | 10 | 101 | 0.0 | 0.0 | 0.00 | 0.05 | 0.05 | 85 | 1014.8 |
| 20260510124942 | 10 | 106 | 0.0 | 0.0 | 0.00 | 0.05 | 0.05 | 85 | 1014.6 |
| 20260510124438 | 10 | 94 | 0.0 | 0.0 | 0.00 | 0.05 | 0.05 | 84 | 1014.7 |
| 20260510123935 | 10 | 102 | 0.0 | 0.0 | 0.00 | 0.05 | 0.05 | 86 | 1014.5 |
| 20260510123431 | 10 | 101 | 0.0 | 0.0 | 0.00 | 0.05 | 0.05 | 86 | 1014.5 |
| 20260510122927 | 9 | 94 | 0.0 | 0.0 | 0.00 | 0.05 | 0.05 | 87 | 1014.2 |
| 20260510122427 | 9 | 104 | 0.0 | 0.0 | 0.00 | 0.05 | 0.05 | 89 | 1014.1 |
| 20260510121924 | 9 | 105 | 0.0 | 0.0 | 0.00 | 0.05 | 0.05 | 90 | 1014.1 |
| 20260510121422 | 9 | 102 | 0.0 | 0.0 | 0.00 | 0.05 | 0.05 | 91 | 1014.3 |
| 20260510120919 | 9 | 101 | 0.0 | 0.0 | 0.00 | 0.05 | 0.05 | 92 | 1014.0 |
| 20260510120416 | 8 | 97 | 0.0 | 0.0 | 0.00 | 0.05 | 0.05 | 91 | 1014.0 |
| 20260510115912 | 8 | 96 | 0.0 | 0.0 | 0.00 | 0.05 | 0.05 | 91 | 1014.0 |
| 20260510115409 | 8 | 100 | 0.0 | 0.0 | 0.00 | 0.05 | 0.05 | 93 | 1013.5 |
| 20260510114905 | 8 | 102 | 0.0 | 0.0 | 0.00 | 0.05 | 0.05 | 93 | 1013.7 |
| 20260510114402 | 8 | 102 | 0.0 | 0.0 | 0.00 | 0.05 | 0.05 | 93 | 1013.7 |
| 20260510113857 | 8 | 102 | 0.0 | 0.0 | 0.00 | 0.05 | 0.05 | 93 | 1013.8 |
| 20260510113353 | 8 | 110 | 0.0 | 0.0 | 0.00 | 0.05 | 0.05 | 92 | 1013.5 |
| 20260510112850 | 8 | 103 | 0.0 | 0.0 | 0.00 | 0.05 | 0.05 | 90 | 1013.1 |
| 20260510112347 | 8 | 110 | 0.0 | 0.0 | 0.00 | 0.05 | 0.05 | 91 | 1012.8 |
| 20260510111843 | 8 | 110 | 0.0 | 0.0 | 0.00 | 0.05 | 0.05 | 90 | 1012.8 |
| 20260510111340 | 8 | 103 | 0.0 | 0.0 | 0.00 | 0.05 | 0.05 | 88 | 1012.8 |
| 20260510110839 | 8 | 103 | 0.0 | 0.0 | 0.00 | 0.05 | 0.05 | 87 | 1012.9 |
| 20260510110337 | 8 | 103 | 0.0 | 0.0 | 0.18 | 0.05 | 0.05 | 85 | 1013.0 |
| 20260510105833 | 9 | 96 | 0.0 | 0.0 | 0.18 | 0.05 | 0.05 | 83 | 1012.9 |
| 20260510105333 | 9 | 97 | 0.0 | 0.0 | 0.00 | 0.03 | 0.03 | 81 | 1012.5 |
| 20260510104829 | 9 | 112 | 0.0 | 0.0 | 0.00 | 0.03 | 0.03 | 78 | 1012.5 |
| 20260510104327 | 10 | 107 | 0.0 | 0.0 | 0.00 | 0.03 | 0.03 | 81 | 1012.6 |
| 20260510103823 | 9 | 97 | 0.0 | 0.0 | 0.00 | 0.03 | 0.03 | 76 | 1012.4 |
| 20260510103320 | 9 | 105 | 0.0 | 0.0 | 0.00 | 0.03 | 0.03 | 80 | 1012.1 |
| 20260510102815 | 9 | 96 | 0.0 | 0.0 | 0.00 | 0.03 | 0.03 | 82 | 1012.3 |
| 20260510102311 | 9 | 115 | 0.0 | 0.0 | 0.00 | 0.03 | 0.03 | 81 | 1011.9 |
| 20260510101808 | 9 | 90 | 0.0 | 0.0 | 0.00 | 0.03 | 0.03 | 78 | 1011.8 |
| 20260510101307 | 9 | 61 | 0.0 | 1.6 | 0.00 | 0.03 | 0.03 | 77 | 1011.7 |
| 20260510100802 | 9 | 90 | 0.0 | 0.0 | 0.00 | 0.03 | 0.03 | 78 | 1011.5 |
| 20260510100300 | 9 | 53 | 1.6 | 1.6 | 0.00 | 0.03 | 0.03 | 76 | 1011.2 |
| 20260510095755 | 9 | 88 | 0.0 | 0.0 | 0.00 | 0.03 | 0.03 | 78 | 1011.4 |
| 20260510095251 | 9 | 118 | 0.0 | 0.0 | 0.00 | 0.03 | 0.03 | 78 | 1011.4 |
| 20260510094750 | 10 | 105 | 0.0 | 0.0 | 0.00 | 0.03 | 0.03 | 80 | 1011.4 |
| 20260510094246 | 10 | 23 | 1.6 | 3.2 | 0.00 | 0.03 | 0.03 | 79 | 1011.2 |
| 20260510093742 | 10 | 106 | 0.0 | 0.0 | 0.00 | 0.03 | 0.03 | 79 | 1011.2 |
| 20260510093239 | 10 | 90 | 0.0 | 0.0 | 0.00 | 0.03 | 0.03 | 81 | 1011.1 |
| 20260510092735 | 10 | 85 | 0.0 | 0.0 | 0.00 | 0.03 | 0.03 | 81 | 1011.0 |
| 20260510092231 | 10 | 68 | 0.0 | 1.6 | 0.00 | 0.03 | 0.03 | 81 | 1011.1 |
| 20260510091727 | 10 | 97 | 0.0 | 0.0 | 0.00 | 0.03 | 0.03 | 83 | 1010.8 |
| 20260510091224 | 10 | 95 | 0.0 | 0.0 | 0.00 | 0.03 | 0.03 | 83 | 1010.7 |
| 20260510090720 | 10 | 109 | 0.0 | 0.0 | 0.00 | 0.03 | 0.03 | 82 | 1010.9 |
| 20260510090218 | 10 | 101 | 0.0 | 0.0 | 0.00 | 0.03 | 0.03 | 85 | 1010.6 |
| 20260510085712 | 10 | 98 | 0.0 | 0.0 | 0.00 | 0.03 | 0.03 | 86 | 1010.2 |
| 20260510085208 | 10 | 94 | 0.0 | 0.0 | 0.00 | 0.03 | 0.03 | 88 | 1010.4 |
| 20260510084704 | 10 | 91 | 0.0 | 0.0 | 0.00 | 0.03 | 0.03 | 91 | 1010.4 |
| 20260510084201 | 10 | 80 | 0.0 | 1.6 | 0.00 | 0.03 | 0.03 | 91 | 1010.4 |
| 20260510083658 | 11 | 93 | 0.0 | 0.0 | 0.00 | 0.03 | 0.03 | 92 | 1010.3 |
| 20260510083155 | 11 | 100 | 0.0 | 1.6 | 0.00 | 0.03 | 0.03 | 91 | 1010.3 |
| 20260510082650 | 11 | 83 | 0.0 | 0.0 | 0.00 | 0.03 | 0.03 | 91 | 1010.3 |
| 20260510082146 | 11 | 66 | 0.0 | 1.6 | 0.00 | 0.03 | 0.03 | 90 | 1010.2 |
| 20260510081641 | 11 | 89 | 0.0 | 1.6 | 0.00 | 0.03 | 0.03 | 90 | 1010.0 |
| 20260510081137 | 11 | 92 | 0.0 | 0.0 | 0.00 | 0.03 | 0.03 | 90 | 1010.0 |
| 20260510080636 | 11 | 78 | 0.0 | 0.0 | 0.00 | 0.03 | 0.03 | 90 | 1009.9 |
| 20260510080134 | 11 | 97 | 0.0 | 0.0 | 0.00 | 0.03 | 0.03 | 89 | 1009.9 |
| 20260510075631 | 12 | 88 | 1.6 | 1.6 | 0.00 | 0.03 | 0.03 | 90 | 1009.7 |
| 20260510075128 | 12 | 94 | 0.0 | 0.0 | 0.00 | 0.03 | 0.03 | 90 | 1009.5 |
| 20260510074625 | 12 | 94 | 0.0 | 1.6 | 0.00 | 0.03 | 0.03 | 90 | 1009.9 |
| 20260510074120 | 12 | 41 | 0.0 | 1.6 | 0.00 | 0.03 | 0.03 | 91 | 1009.7 |
| 20260510073616 | 12 | 110 | 0.0 | 1.6 | 0.00 | 0.03 | 0.03 | 91 | 1009.6 |
| 20260510073114 | 12 | 113 | 0.0 | 0.0 | 0.00 | 0.03 | 0.03 | 91 | 1009.5 |
| 20260510072610 | 12 | 92 | 0.0 | 0.0 | 0.00 | 0.03 | 0.03 | 90 | 1009.5 |
| 20260510072107 | 12 | 97 | 0.0 | 0.0 | 0.00 | 0.03 | 0.03 | 90 | 1009.5 |
| 20260510071602 | 13 | 100 | 0.0 | 0.0 | 0.00 | 0.03 | 0.03 | 89 | 1009.4 |
| 20260510071101 | 13 | 96 | 0.0 | 0.0 | 0.00 | 0.03 | 0.03 | 88 | 1009.4 |
| 20260510070557 | 13 | 106 | 0.0 | 0.0 | 0.00 | 0.03 | 0.03 | 88 | 1009.4 |
| 20260510070054 | 13 | 98 | 0.0 | 0.0 | 0.00 | 0.03 | 0.03 | 88 | 1009.6 |
| 20260510065550 | 13 | 88 | 0.0 | 0.0 | 0.00 | 0.03 | 0.03 | 89 | 1009.4 |
| 20260510065046 | 13 | 109 | 0.0 | 0.0 | 0.00 | 0.03 | 0.03 | 90 | 1009.6 |
| 20260510064543 | 13 | 85 | 0.0 | 1.6 | 0.00 | 0.03 | 0.03 | 91 | 1009.4 |
| 20260510064040 | 12 | 74 | 0.0 | 1.6 | 0.00 | 0.03 | 0.03 | 92 | 1009.5 |
| 20260510063537 | 12 | 111 | 0.0 | 0.0 | 0.00 | 0.03 | 0.03 | 93 | 1009.2 |
| 20260510063034 | 12 | 120 | 0.0 | 0.0 | 0.00 | 0.03 | 0.03 | 93 | 1009.4 |
| 20260510062530 | 12 | 105 | 0.0 | 1.6 | 0.00 | 0.03 | 0.03 | 94 | 1009.2 |
| 20260510062025 | 12 | 128 | 1.6 | 1.6 | 0.00 | 0.03 | 0.03 | 95 | 1009.2 |
| 20260510061522 | 12 | 93 | 0.0 | 0.0 | 0.00 | 0.03 | 0.03 | 95 | 1009.2 |
| 20260510061018 | 12 | 89 | 0.0 | 0.0 | 0.00 | 0.03 | 0.03 | 95 | 1009.0 |
| 20260510060515 | 12 | 106 | 0.0 | 0.0 | 0.00 | 0.03 | 0.03 | 95 | 1009.1 |
| 20260510060011 | 12 | 96 | 0.0 | 0.0 | 0.00 | 0.03 | 0.03 | 95 | 1009.1 |
| 20260510055507 | 12 | 93 | 0.0 | 0.0 | 0.00 | 0.03 | 0.03 | 95 | 1009.0 |
| 20260510055005 | 12 | 103 | 0.0 | 0.0 | 0.00 | 0.03 | 0.03 | 95 | 1009.1 |
| 20260510054501 | 12 | 104 | 0.0 | 0.0 | 0.00 | 0.03 | 0.03 | 95 | 1009.0 |
| 20260510053956 | 11 | 93 | 0.0 | 0.0 | 0.00 | 0.03 | 0.03 | 96 | 1009.1 |
| 20260510053451 | 11 | 113 | 0.0 | 0.0 | 0.00 | 0.03 | 0.03 | 96 | 1008.9 |
| 20260510052947 | 11 | 102 | 0.0 | 0.0 | 0.00 | 0.03 | 0.03 | 96 | 1009.1 |
| 20260510052443 | 11 | 102 | 0.0 | 0.0 | 0.00 | 0.03 | 0.03 | 96 | 1008.8 |
| 20260510051940 | 11 | 106 | 0.0 | 0.0 | 0.00 | 0.03 | 0.03 | 95 | 1008.9 |
| 20260510051436 | 11 | 106 | 0.0 | 0.0 | 0.00 | 0.03 | 0.03 | 95 | 1009.0 |
| 20260510050933 | 11 | 106 | 0.0 | 0.0 | 0.00 | 0.03 | 0.03 | 95 | 1008.9 |
| 20260510050429 | 12 | 106 | 0.0 | 0.0 | 0.00 | 0.03 | 0.03 | 95 | 1008.9 |
| 20260510045927 | 12 | 110 | 0.0 | 0.0 | 0.00 | 0.03 | 0.03 | 94 | 1008.9 |
| 20260510045424 | 12 | 114 | 0.0 | 0.0 | 0.00 | 0.03 | 0.03 | 94 | 1009.1 |
| 20260510044920 | 12 | 117 | 0.0 | 0.0 | 0.00 | 0.03 | 0.03 | 93 | 1008.9 |
| 20260510044418 | 12 | 107 | 0.0 | 0.0 | 0.00 | 0.03 | 0.03 | 92 | 1008.8 |
| 20260510043914 | 13 | 93 | 0.0 | 0.0 | 0.00 | 0.03 | 0.03 | 91 | 1008.8 |
| 20260510043410 | 13 | 103 | 0.0 | 0.0 | 0.00 | 0.03 | 0.03 | 89 | 1009.0 |
| 20260510042908 | 13 | 94 | 0.0 | 1.6 | 0.18 | 0.03 | 0.03 | 88 | 1008.9 |
| 20260510042404 | 13 | 110 | 0.0 | 0.0 | 0.18 | 0.03 | 0.03 | 90 | 1009.4 |
| 20260510041900 | 13 | 6 | 3.2 | 4.8 | 0.00 | 0.00 | 0.00 | 88 | 1009.2 |
| 20260510041357 | 13 | 44 | 1.6 | 3.2 | 0.00 | 0.00 | 0.00 | 88 | 1009.3 |
| 20260510040855 | 13 | 52 | 1.6 | 1.6 | 0.00 | 0.00 | 0.00 | 90 | 1008.6 |
| 20260510040352 | 13 | 92 | 0.0 | 0.0 | 0.00 | 0.00 | 0.00 | 91 | 1008.5 |
| 20260510035847 | 12 | 100 | 0.0 | 0.0 | 0.00 | 0.20 | 0.20 | 93 | 1008.4 |
| 20260510035343 | 12 | 97 | 0.0 | 0.0 | 0.00 | 0.20 | 0.20 | 94 | 1008.3 |
| 20260510034839 | 12 | 97 | 0.0 | 0.0 | 0.00 | 0.20 | 0.20 | 94 | 1008.4 |
| 20260510034337 | 12 | 106 | 0.0 | 0.0 | 0.00 | 0.20 | 0.20 | 95 | 1008.3 |
| 20260510033833 | 12 | 106 | 0.0 | 0.0 | 0.00 | 0.20 | 0.20 | 95 | 1008.1 |
| 20260510033330 | 12 | 106 | 0.0 | 0.0 | 0.00 | 0.20 | 0.20 | 95 | 1008.1 |
| 20260510032827 | 12 | 96 | 0.0 | 0.0 | 0.00 | 0.20 | 0.20 | 95 | 1008.2 |
| 20260510032323 | 12 | 88 | 0.0 | 0.0 | 0.00 | 0.20 | 0.20 | 95 | 1008.3 |
| 20260510031819 | 12 | 94 | 0.0 | 0.0 | 0.00 | 0.20 | 0.20 | 96 | 1008.0 |
| 20260510031314 | 12 | 102 | 0.0 | 0.0 | 0.00 | 0.20 | 0.20 | 96 | 1008.2 |
| 20260510030809 | 12 | 102 | 0.0 | 0.0 | 0.00 | 0.20 | 0.20 | 95 | 1008.2 |
| 20260510030306 | 12 | 102 | 0.0 | 0.0 | 0.00 | 0.20 | 0.20 | 95 | 1008.1 |
| 20260510025803 | 12 | 92 | 0.0 | 0.0 | 0.00 | 0.20 | 0.20 | 95 | 1008.1 |
| 20260510025300 | 12 | 99 | 0.0 | 0.0 | 0.00 | 0.20 | 0.20 | 95 | 1008.1 |
| 20260510024757 | 13 | 100 | 0.0 | 0.0 | 0.00 | 0.20 | 0.20 | 94 | 1008.0 |
| 20260510024254 | 13 | 97 | 0.0 | 0.0 | 0.00 | 0.20 | 0.20 | 94 | 1008.2 |
| 20260510023750 | 13 | 97 | 0.0 | 0.0 | 0.00 | 0.20 | 0.20 | 93 | 1007.9 |
| 20260510023247 | 13 | 106 | 0.0 | 0.0 | 0.00 | 0.20 | 0.20 | 93 | 1007.9 |
| 20260510022743 | 13 | 96 | 0.0 | 0.0 | 0.00 | 0.20 | 0.20 | 93 | 1007.9 |
| 20260510022243 | 13 | 96 | 0.0 | 0.0 | 0.00 | 0.20 | 0.20 | 93 | 1007.8 |
| 20260510021742 | 13 | 99 | 0.0 | 0.0 | 0.00 | 0.20 | 0.20 | 93 | 1007.7 |
| 20260510021241 | 13 | 90 | 0.0 | 0.0 | 0.00 | 0.20 | 0.20 | 93 | 1007.6 |
| 20260510020737 | 13 | 104 | 0.0 | 0.0 | 0.00 | 0.20 | 0.20 | 91 | 1007.9 |
| 20260510020237 | 13 | 90 | 0.0 | 0.0 | 0.00 | 0.20 | 0.20 | 91 | 1007.7 |
| 20260510015733 | 14 | 103 | 0.0 | 0.0 | 0.00 | 0.20 | 0.20 | 89 | 1007.7 |
| 20260510015229 | 14 | 108 | 0.0 | 0.0 | 0.00 | 0.20 | 0.20 | 88 | 1007.4 |
| 20260510014724 | 14 | 126 | 1.6 | 1.6 | 0.00 | 0.20 | 0.20 | 90 | 1007.7 |
| 20260510014222 | 14 | 79 | 0.0 | 1.6 | 0.00 | 0.20 | 0.20 | 90 | 1007.5 |
| 20260510013717 | 15 | 87 | 0.0 | 0.0 | 0.00 | 0.20 | 0.20 | 89 | 1007.1 |
| 20260510013214 | 15 | 60 | 1.6 | 1.6 | 0.13 | 0.20 | 0.20 | 86 | 1007.1 |
| 20260510012713 | 15 | 109 | 0.0 | 0.0 | 0.13 | 0.20 | 0.20 | 82 | 1006.9 |
| 20260510012204 | 16 | 51 | 1.6 | 1.6 | 0.00 | 0.18 | 0.18 | 80 | 1007.2 |
| 20260510011658 | 16 | 112 | 0.0 | 1.6 | 0.00 | 0.18 | 0.18 | 75 | 1007.2 |
| 20260510011154 | 16 | 110 | 0.0 | 0.0 | 0.00 | 0.18 | 0.18 | 72 | 1007.1 |
| 20260510010651 | 17 | 89 | 0.0 | 0.0 | 0.00 | 0.18 | 0.18 | 71 | 1006.9 |
| 20260510010147 | 17 | 124 | 1.6 | 1.6 | 0.00 | 0.18 | 0.18 | 70 | 1007.1 |
| 20260510005643 | 17 | 352 | 1.6 | 4.8 | 0.00 | 0.18 | 0.18 | 67 | 1006.9 |
| 20260510005141 | 18 | 90 | 0.0 | 1.6 | 0.00 | 0.18 | 0.18 | 64 | 1006.6 |
| 20260510004639 | 18 | 26 | 3.2 | 3.2 | 0.00 | 0.18 | 0.18 | 63 | 1006.7 |
| 20260510004137 | 18 | 105 | 0.0 | 1.6 | 0.00 | 0.18 | 0.18 | 59 | 1006.3 |
| 20260510003634 | 18 | 151 | 3.2 | 3.2 | 0.00 | 0.18 | 0.18 | 59 | 1006.3 |
| 20260510003130 | 18 | 138 | 1.6 | 3.2 | 0.00 | 0.18 | 0.18 | 61 | 1006.0 |
| 20260510002629 | 18 | 341 | 1.6 | 1.6 | 0.00 | 0.18 | 0.18 | 60 | 1006.1 |
| 20260510002127 | 18 | 204 | 1.6 | 3.2 | 0.00 | 0.18 | 0.18 | 61 | 1006.0 |
| 20260510001623 | 18 | 112 | 1.6 | 1.6 | 0.00 | 0.18 | 0.18 | 61 | 1006.0 |
| 20260510001123 | 18 | 234 | 3.2 | 3.2 | 0.00 | 0.18 | 0.18 | 61 | 1006.1 |
| 20260510000622 | 18 | 196 | 0.0 | 1.6 | 0.00 | 0.18 | 0.18 | 60 | 1005.9 |
| 20260510000120 | 19 | 159 | 1.6 | 3.2 | 0.00 | 0.18 | 0.18 | 61 | 1005.8 |
| 20260509235616 | 18 | 269 | 3.2 | 4.8 | 0.00 | 0.18 | 0.18 | 60 | 1006.1 |
| 20260509235113 | 19 | 269 | 3.2 | 3.2 | 0.00 | 0.18 | 0.18 | 60 | 1005.9 |
| 20260509234609 | 19 | 233 | 1.6 | 3.2 | 0.00 | 0.18 | 0.18 | 62 | 1005.9 |
| 20260509234107 | 19 | 211 | 3.2 | 3.2 | 0.00 | 0.18 | 0.18 | 60 | 1005.7 |
| 20260509233604 | 19 | 190 | 3.2 | 3.2 | 0.00 | 0.18 | 0.18 | 62 | 1005.8 |
| 20260509233101 | 19 | 206 | 3.2 | 3.2 | 0.00 | 0.18 | 0.18 | 61 | 1005.9 |
| 20260509232557 | 20 | 134 | 1.6 | 1.6 | 0.00 | 0.18 | 0.18 | 60 | 1005.7 |
| 20260509232055 | 19 | 141 | 3.2 | 3.2 | 0.00 | 0.18 | 0.18 | 60 | 1005.7 |
| 20260509231551 | 20 | 103 | 3.2 | 3.2 | 0.00 | 0.18 | 0.18 | 58 | 1005.6 |
| 20260509231049 | 20 | 216 | 3.2 | 3.2 | 0.00 | 0.18 | 0.18 | 58 | 1005.8 |
| 20260509230545 | 20 | 342 | 3.2 | 3.2 | 0.00 | 0.18 | 0.18 | 59 | 1005.9 |
| 20260509230043 | 20 | 232 | 3.2 | 3.2 | 0.00 | 0.18 | 0.18 | 59 | 1005.9 |
| 20260509225538 | 20 | 331 | 3.2 | 3.2 | 0.00 | 0.18 | 0.18 | 56 | 1005.8 |
| 20260509225034 | 20 | 103 | 3.2 | 4.8 | 0.00 | 0.18 | 0.18 | 56 | 1005.6 |
| 20260509224529 | 20 | 153 | 3.2 | 4.8 | 0.00 | 0.18 | 0.18 | 54 | 1006.0 |
| 20260509224026 | 20 | 266 | 1.6 | 3.2 | 0.00 | 0.18 | 0.18 | 56 | 1005.6 |
| 20260509223523 | 20 | 65 | 3.2 | 9.7 | 0.00 | 0.18 | 0.18 | 55 | 1005.6 |
| 20260509223021 | 20 | 199 | 3.2 | 3.2 | 0.00 | 0.18 | 0.18 | 56 | 1005.6 |
| 20260509222517 | 20 | 166 | 1.6 | 3.2 | 0.00 | 0.18 | 0.18 | 59 | 1005.6 |
| 20260509222012 | 20 | 170 | 3.2 | 4.8 | 0.00 | 0.18 | 0.18 | 57 | 1005.7 |
| 20260509221509 | 20 | 197 | 3.2 | 4.8 | 0.00 | 0.18 | 0.18 | 56 | 1005.4 |
| 20260509221005 | 20 | 244 | 3.2 | 4.8 | 0.00 | 0.18 | 0.18 | 57 | 1005.6 |
| 20260509220501 | 20 | 288 | 4.8 | 4.8 | 0.00 | 0.18 | 0.18 | 56 | 1005.8 |
| 20260509215957 | 20 | 194 | 3.2 | 3.2 | 0.00 | 0.18 | 0.18 | 55 | 1005.6 |
| 20260509215453 | 20 | 69 | 3.2 | 4.8 | 0.00 | 0.18 | 0.18 | 55 | 1005.6 |
| 20260509214950 | 20 | 104 | 6.4 | 11.3 | 0.00 | 0.18 | 0.18 | 57 | 1005.6 |
| 20260509214448 | 20 | 177 | 4.8 | 6.4 | 0.00 | 0.18 | 0.18 | 57 | 1005.8 |
| 20260509213944 | 20 | 199 | 3.2 | 3.2 | 0.00 | 0.18 | 0.18 | 59 | 1005.8 |
| 20260509213440 | 20 | 326 | 3.2 | 3.2 | 0.00 | 0.18 | 0.18 | 60 | 1005.9 |
| 20260509212937 | 20 | 205 | 3.2 | 4.8 | 0.00 | 0.18 | 0.18 | 58 | 1005.9 |
| 20260509212435 | 20 | 114 | 1.6 | 3.2 | 0.00 | 0.18 | 0.18 | 63 | 1005.9 |
| 20260509211931 | 20 | 245 | 3.2 | 4.8 | 0.00 | 0.18 | 0.18 | 59 | 1005.7 |
| 20260509211426 | 20 | 350 | 3.2 | 4.8 | 0.00 | 0.18 | 0.18 | 58 | 1005.7 |
| 20260509210923 | 20 | 50 | 3.2 | 6.4 | 0.00 | 0.18 | 0.18 | 56 | 1005.7 |
| 20260509210420 | 20 | 235 | 1.6 | 1.6 | 0.00 | 0.18 | 0.18 | 56 | 1005.9 |
| 20260509205915 | 21 | 247 | 3.2 | 4.8 | 0.00 | 0.18 | 0.18 | 56 | 1006.0 |
| 20260509205415 | 21 | 255 | 3.2 | 4.8 | 0.00 | 0.18 | 0.18 | 56 | 1005.8 |
| 20260509204911 | 21 | 322 | 3.2 | 3.2 | 0.00 | 0.18 | 0.18 | 59 | 1005.9 |
| 20260509204408 | 21 | 198 | 3.2 | 4.8 | 0.00 | 0.18 | 0.18 | 55 | 1006.2 |
| 20260509203905 | 21 | 229 | 4.8 | 4.8 | 0.00 | 0.18 | 0.18 | 54 | 1006.0 |